• In Romania
  • List of Countries
  • For 7 days
  • Water Temperature
  • Satellite Maps
  • Weather Map
  • Weather Widgets
  • user-avatar
    Login

    Hourly Weather Quito

    Today, 24 February, Friday

    Time Temperature Precipitation Wind Pressure Humidity
    00:00 +16°C° 0 mm 1 mps 621 mmHg 77%
    01:00 +15°C° 0 mm 1 mps 621 mmHg 80%
    02:00 +15°C° 0 mm 1 mps 621 mmHg 80%
    03:00 +15°C° 0 mm 1 mps 620 mmHg 81%
    04:00 +14°C° 0 mm 1 mps 620 mmHg 82%
    05:00 +15°C° 0 mm 1 mps 621 mmHg 80%
    06:00 +16°C° 0 mm 1 mps 621 mmHg 78%
    07:00 +16°C° 0 mm 1 mps 622 mmHg 76%
    08:00 +21°C° 0 mm 1 mps 623 mmHg 65%
    09:00 +24°C° 0 mm 1 mps 624 mmHg 53%
    10:00 +27°C° 0 mm 1 mps 625 mmHg 41%
    11:00 +28°C° 0.1 mm 1 mps 624 mmHg 39%
    12:00 +29°C° 0.1 mm 1 mps 624 mmHg 36%
    13:00 +31°C° 0.1 mm 1 mps 624 mmHg 33%
    14:00 +30°C° 0.2 mm 1 mps 623 mmHg 36%
    15:00 +29°C° 0.2 mm 1 mps 623 mmHg 39%
    16:00 +28°C° 0.2 mm 1 mps 622 mmHg 43%
    17:00 +25°C° 0 mm 1 mps 621 mmHg 50%
    18:00 +23°C° 0 mm 1 mps 621 mmHg 57%
    19:00 +20°C° 0 mm 1 mps 620 mmHg 64%
    20:00 +20°C° 0.1 mm 1 mps 621 mmHg 66%
    21:00 +20°C° 0.1 mm 1 mps 621 mmHg 67%
    22:00 +19°C° 0.1 mm 1 mps 622 mmHg 68%
    23:00 +19°C° 0.3 mm 1 mps 621 mmHg 73%

    Tomorrow, 25 February, Saturday

    Time Temperature Precipitation Wind Pressure Humidity
    00:00 +18°C° 0.3 mm 1 mps 621 mmHg 77%
    01:00 +16°C° 0.3 mm 1 mps 621 mmHg 81%
    02:00 +16°C° 0.2 mm 2 mps 621 mmHg 83%
    03:00 +16°C° 0.2 mm 2 mps 621 mmHg 85%
    04:00 +15°C° 0.2 mm 2 mps 620 mmHg 86%
    05:00 +16°C° 0 mm 2 mps 621 mmHg 85%
    06:00 +16°C° 0 mm 2 mps 621 mmHg 84%
    07:00 +17°C° 0 mm 2 mps 622 mmHg 83%
    08:00 +19°C° 0.1 mm 2 mps 623 mmHg 74%
    09:00 +21°C° 0.1 mm 2 mps 623 mmHg 65%
    10:00 +24°C° 0.1 mm 2 mps 624 mmHg 56%
    11:00 +25°C° 0.2 mm 2 mps 624 mmHg 51%
    12:00 +27°C° 0.2 mm 2 mps 624 mmHg 46%
    13:00 +28°C° 0.2 mm 2 mps 623 mmHg 41%
    14:00 +28°C° 0.4 mm 2 mps 623 mmHg 47%
    15:00 +27°C° 0.4 mm 2 mps 622 mmHg 54%
    16:00 +26°C° 0.4 mm 1 mps 622 mmHg 60%
    17:00 +24°C° 0.7 mm 1 mps 621 mmHg 68%
    18:00 +22°C° 0.7 mm 1 mps 621 mmHg 76%
    19:00 +18°C° 0.7 mm 0 mps 621 mmHg 83%
    20:00 +17°C° 0.4 mm 0 mps 621 mmHg 85%
    21:00 +17°C° 0.4 mm 0 mps 621 mmHg 87%
    22:00 +16°C° 0.4 mm 0 mps 621 mmHg 88%
    23:00 +16°C° 0.1 mm 0 mps 621 mmHg 89%

    Day after tomorrow, 26 February, Sunday

    Time Temperature Precipitation Wind Pressure Humidity
    00:00 +16°C° 0.1 mm 0 mps 621 mmHg 90%
    01:00 +16°C° 0.1 mm 0 mps 620 mmHg 91%
    02:00 +15°C° 0.1 mm 0 mps 620 mmHg 92%
    03:00 +16°C° 0.1 mm 1 mps 620 mmHg 92%
    04:00 +16°C° 0.1 mm 1 mps 620 mmHg 93%
    05:00 +18°C° 0 mm 1 mps 621 mmHg 92%
    06:00 +18°C° 0 mm 1 mps 621 mmHg 91%
    07:00 +19°C° 0 mm 1 mps 622 mmHg 90%
    08:00 +20°C° 0.1 mm 1 mps 622 mmHg 85%
    09:00 +21°C° 0.1 mm 1 mps 623 mmHg 79%
    10:00 +23°C° 0.1 mm 1 mps 623 mmHg 74%
    11:00 +24°C° 0.1 mm 1 mps 623 mmHg 67%
    12:00 +25°C° 0.1 mm 2 mps 622 mmHg 60%
    13:00 +26°C° 0.1 mm 2 mps 622 mmHg 54%
    14:00 +26°C° 0.2 mm 2 mps 622 mmHg 55%
    15:00 +26°C° 0.2 mm 2 mps 621 mmHg 57%
    16:00 +26°C° 0.2 mm 2 mps 620 mmHg 59%
    17:00 +24°C° 0.4 mm 2 mps 620 mmHg 68%
    18:00 +21°C° 0.4 mm 2 mps 620 mmHg 77%
    19:00 +20°C° 0.4 mm 1 mps 620 mmHg 86%
    20:00 +19°C° 1 mm 1 mps 620 mmHg 89%
    21:00 +18°C° 1 mm 1 mps 620 mmHg 92%
    22:00 +16°C° 1 mm 0 mps 620 mmHg 95%
    23:00 +18°C° 0.9 mm 1 mps 620 mmHg 95%

    27 February, Monday

    Time Temperature Precipitation Wind Pressure Humidity
    00:00 +18°C° 0.9 mm 1 mps 620 mmHg 95%
    01:00 +18°C° 0.9 mm 1 mps 619 mmHg 96%
    02:00 +18°C° 1.8 mm 1 mps 619 mmHg 96%
    03:00 +18°C° 1.8 mm 1 mps 619 mmHg 96%
    04:00 +18°C° 1.8 mm 1 mps 619 mmHg 97%
    05:00 +18°C° 2.1 mm 1 mps 619 mmHg 97%
    06:00 +18°C° 2.1 mm 1 mps 620 mmHg 96%
    07:00 +18°C° 2.1 mm 1 mps 620 mmHg 96%
    08:00 +18°C° 3.3 mm 1 mps 620 mmHg 96%
    09:00 +17°C° 3.3 mm 2 mps 621 mmHg 95%
    10:00 +18°C° 3.3 mm 2 mps 621 mmHg 94%
    11:00 +17°C° 2.9 mm 2 mps 620 mmHg 95%
    12:00 +17°C° 2.9 mm 2 mps 620 mmHg 95%
    13:00 +17°C° 2.9 mm 2 mps 619 mmHg 96%
    14:00 +17°C° 1.5 mm 2 mps 619 mmHg 95%
    15:00 +18°C° 1.5 mm 2 mps 619 mmHg 95%
    16:00 +19°C° 1.5 mm 1 mps 619 mmHg 94%
    17:00 +18°C° 1 mm 1 mps 619 mmHg 95%
    18:00 +18°C° 1 mm 1 mps 619 mmHg 96%
    19:00 +18°C° 1 mm 1 mps 620 mmHg 97%
    20:00 +18°C° 2.1 mm 1 mps 620 mmHg 97%
    21:00 +18°C° 2.1 mm 1 mps 620 mmHg 97%
    22:00 +18°C° 2.1 mm 1 mps 621 mmHg 97%
    23:00 +18°C° 1.7 mm 1 mps 620 mmHg 97%

    28 February, Tuesday

    Time Temperature Precipitation Wind Pressure Humidity
    00:00 +18°C° 1.7 mm 1 mps 620 mmHg 97%
    01:00 +16°C° 1.7 mm 1 mps 620 mmHg 97%
    02:00 +16°C° 1.5 mm 2 mps 619 mmHg 97%
    03:00 +16°C° 1.5 mm 2 mps 619 mmHg 97%
    04:00 +16°C° 1.5 mm 2 mps 619 mmHg 97%
    05:00 +16°C° 1.4 mm 1 mps 620 mmHg 96%
    06:00 +16°C° 1.4 mm 1 mps 620 mmHg 96%
    07:00 +16°C° 1.4 mm 1 mps 621 mmHg 96%
    08:00 +18°C° 1.1 mm 1 mps 621 mmHg 94%
    09:00 +18°C° 1.1 mm 1 mps 621 mmHg 93%
    10:00 +19°C° 1.1 mm 1 mps 621 mmHg 91%
    11:00 +20°C° 0.8 mm 1 mps 621 mmHg 88%
    12:00 +19°C° 0.8 mm 2 mps 621 mmHg 86%
    13:00 +20°C° 0.8 mm 2 mps 620 mmHg 83%
    14:00 +21°C° 0.1 mm 2 mps 620 mmHg 79%
    15:00 +21°C° 0.1 mm 2 mps 620 mmHg 76%
    16:00 +23°C° 0.1 mm 2 mps 620 mmHg 72%
    17:00 +21°C° 0.1 mm 1 mps 620 mmHg 79%
    18:00 +19°C° 0.1 mm 1 mps 619 mmHg 85%
    19:00 +16°C° 0.1 mm 1 mps 619 mmHg 92%
    20:00 +18°C° 0 mm 1 mps 619 mmHg 90%
    21:00 +18°C° 0 mm 1 mps 620 mmHg 88%
    22:00 +18°C° 0 mm 1 mps 620 mmHg 86%
    23:00 +16°C° 0 mm 1 mps 620 mmHg 87%

    1 March, Wednesday

    Time Temperature Precipitation Wind Pressure Humidity
    00:00 +16°C° 0 mm 1 mps 620 mmHg 87%
    01:00 +16°C° 0 mm 1 mps 620 mmHg 88%
    02:00 +15°C° 0 mm 1 mps 620 mmHg 89%
    03:00 +14°C° 0 mm 1 mps 619 mmHg 90%
    04:00 +14°C° 0 mm 1 mps 619 mmHg 92%
    05:00 +14°C° 0 mm 1 mps 620 mmHg 90%
    06:00 +15°C° 0 mm 1 mps 620 mmHg 88%
    07:00 +16°C° 0 mm 1 mps 621 mmHg 87%
    08:00 +19°C° 0 mm 1 mps 622 mmHg 76%
    09:00 +22°C° 0 mm 1 mps 622 mmHg 65%
    10:00 +25°C° 0 mm 1 mps 623 mmHg 55%
    11:00 +26°C° 0 mm 2 mps 623 mmHg 49%
    12:00 +27°C° 0 mm 2 mps 623 mmHg 43%
    13:00 +28°C° 0 mm 3 mps 622 mmHg 38%
    14:00 +28°C° 0 mm 2 mps 622 mmHg 39%
    15:00 +28°C° 0 mm 2 mps 621 mmHg 40%
    16:00 +28°C° 0 mm 2 mps 621 mmHg 41%
    17:00 +25°C° 0 mm 2 mps 620 mmHg 50%
    18:00 +21°C° 0 mm 2 mps 620 mmHg 58%
    19:00 +19°C° 0 mm 1 mps 620 mmHg 67%
    20:00 +19°C° 0.1 mm 1 mps 620 mmHg 67%
    21:00 +19°C° 0.1 mm 1 mps 621 mmHg 67%
    22:00 +18°C° 0.1 mm 2 mps 621 mmHg 67%
    23:00 +16°C° 0 mm 2 mps 621 mmHg 71%
    Show more